�������l�o���
Date,Time,MP-1(��Sv/h),MP-2(��Sv/h),MP-3(��Sv/h),MP-4(��Sv/h),MP-5(��Sv/h),MP-6(��Sv/h),MP-7(��Sv/h),MP-8(��Sv/h),����,����(m/s),���J
2021/07/26,00:00,0.639,0.955,0.607,1.160,0.840,0.376,0.655,0.608,�k��,3.7,��
2021/07/26,00:10,0.637,0.956,0.606,1.162,0.838,0.377,0.655,0.607,�k�k��,4.1,��
2021/07/26,00:20,0.638,0.956,0.607,1.161,0.839,0.376,0.653,0.608,�k�k��,4.7,��
2021/07/26,00:30,0.641,0.954,0.607,1.161,0.839,0.376,0.654,0.608,�k�k��,4.6,��
2021/07/26,00:40,0.640,0.957,0.607,1.162,0.839,0.375,0.655,0.608,�k,3.9,��
2021/07/26,00:50,0.639,0.956,0.607,1.161,0.839,0.377,0.654,0.608,�k�k��,3.3,��
2021/07/26,01:00,0.638,0.956,0.606,1.163,0.840,0.377,0.655,0.608,�k�k��,4.2,��
2021/07/26,01:10,0.640,0.954,0.607,1.161,0.838,0.377,0.653,0.609,�k�k��,4.8,��
2021/07/26,01:20,0.639,0.955,0.606,1.162,0.839,0.377,0.655,0.609,�k�k��,4.6,��
2021/07/26,01:30,0.640,0.957,0.607,1.162,0.838,0.376,0.655,0.607,�k�k��,5.1,��
2021/07/26,01:40,0.641,0.955,0.607,1.163,0.840,0.376,0.654,0.608,�k�k��,4.9,�L
2021/07/26,01:50,0.639,0.958,0.606,1.162,0.839,0.376,0.653,0.609,�k,5.0,��
2021/07/26,02:00,0.641,0.956,0.608,1.164,0.838,0.377,0.655,0.608,�k,4.8,��
2021/07/26,02:10,0.637,0.955,0.607,1.162,0.837,0.376,0.655,0.608,�k�k��,5.1,��
2021/07/26,02:20,0.640,0.953,0.606,1.162,0.840,0.376,0.653,0.609,�k�k��,5.0,��
2021/07/26,02:30,0.640,0.958,0.606,1.163,0.839,0.376,0.654,0.608,�k�k��,3.9,��
2021/07/26,02:40,0.640,0.957,0.606,1.162,0.840,0.377,0.654,0.608,�k�k��,3.8,��
2021/07/26,02:50,0.639,0.955,0.606,1.162,0.838,0.377,0.654,0.606,�k�k��,3.6,��
2021/07/26,03:00,0.639,0.957,0.606,1.164,0.839,0.378,0.655,0.607,�k,3.4,��
2021/07/26,03:10,0.640,0.955,0.607,1.161,0.841,0.375,0.655,0.608,�k,3.3,��
2021/07/26,03:20,0.640,0.955,0.605,1.162,0.838,0.376,0.653,0.608,�k�k��,2.9,��
2021/07/26,03:30,0.639,0.955,0.606,1.163,0.838,0.377,0.655,0.606,�k,3.2,��
2021/07/26,03:40,0.639,0.955,0.605,1.162,0.838,0.377,0.654,0.609,�k,3.2,��
2021/07/26,03:50,0.638,0.957,0.606,1.161,0.839,0.377,0.654,0.609,�k,2.9,��
2021/07/26,04:00,0.641,0.956,0.606,1.163,0.840,0.377,0.653,0.608,�k,3.6,��
2021/07/26,04:10,0.639,0.956,0.606,1.162,0.838,0.375,0.654,0.608,�k,3.6,��
2021/07/26,04:20,0.639,0.958,0.605,1.163,0.837,0.377,0.654,0.608,�k,3.6,��
2021/07/26,04:30,0.639,0.957,0.608,1.161,0.837,0.377,0.654,0.609,�k,3.1,��
2021/07/26,04:40,0.638,0.958,0.608,1.162,0.838,0.377,0.655,0.607,�k�k��,3.1,��
2021/07/26,04:50,0.639,0.956,0.604,1.161,0.840,0.377,0.655,0.609,�k�k��,3.8,��
2021/07/26,05:00,0.638,0.957,0.606,1.161,0.838,0.378,0.654,0.608,�k,4.7,��
2021/07/26,05:10,0.639,0.953,0.605,1.162,0.839,0.376,0.652,0.609,�k,4.2,��
2021/07/26,05:20,0.638,0.956,0.606,1.163,0.837,0.376,0.653,0.609,�k,4.0,��
2021/07/26,05:30,0.636,0.956,0.607,1.164,0.837,0.376,0.653,0.608,�k,3.5,��
2021/07/26,05:40,0.638,0.956,0.605,1.163,0.838,0.375,0.653,0.609,�k,3.8,��
2021/07/26,05:50,0.636,0.954,0.604,1.161,0.837,0.376,0.653,0.608,�k�k��,5.6,��
2021/07/26,06:00,0.639,0.954,0.605,1.162,0.837,0.375,0.654,0.609,�k,5.1,��
2021/07/26,06:10,0.637,0.956,0.605,1.160,0.838,0.375,0.654,0.608,�k�k��,4.4,��
2021/07/26,06:20,0.635,0.956,0.606,1.160,0.835,0.374,0.655,0.607,�k�k��,5.0,��
2021/07/26,06:30,0.636,0.956,0.605,1.159,0.835,0.375,0.654,0.609,�k�k��,4.3,��
2021/07/26,06:40,0.637,0.956,0.604,1.162,0.837,0.375,0.655,0.608,�k�k��,4.6,��
2021/07/26,06:50,0.636,0.954,0.603,1.162,0.838,0.374,0.656,0.608,�k�k��,5.4,��
2021/07/26,07:00,0.636,0.956,0.603,1.162,0.838,0.374,0.654,0.609,�k�k��,4.1,��
2021/07/26,07:10,0.635,0.955,0.604,1.161,0.836,0.374,0.653,0.610,�k�k��,4.9,��
2021/07/26,07:20,0.635,0.956,0.604,1.162,0.837,0.376,0.654,0.610,�k�k��,5.3,��
2021/07/26,07:30,0.635,0.954,0.604,1.159,0.840,0.374,0.655,0.609,�k�k��,5.8,��
2021/07/26,07:40,0.636,0.952,0.606,1.160,0.838,0.373,0.654,0.609,�k�k��,5.4,��
2021/07/26,07:50,0.636,0.954,0.604,1.161,0.837,0.374,0.654,0.609,�k�k��,5.6,��
2021/07/26,08:00,0.636,0.952,0.604,1.160,0.837,0.375,0.655,0.608,�k�k��,5.7,��
2021/07/26,08:10,0.636,0.952,0.604,1.161,0.838,0.375,0.654,0.609,�k�k��,7.2,��
2021/07/26,08:20,0.636,0.951,0.605,1.159,0.836,0.375,0.653,0.608,�k,6.9,��
2021/07/26,08:30,0.636,0.952,0.605,1.160,0.837,0.374,0.652,0.607,�k,6.9,��
2021/07/26,08:40,0.638,0.955,0.605,1.160,0.838,0.375,0.654,0.607,�k,7.5,��
2021/07/26,08:50,0.638,0.952,0.606,1.161,0.837,0.375,0.652,0.605,�k�k��,6.4,��
2021/07/26,09:00,0.635,0.950,0.605,1.161,0.837,0.375,0.654,0.606,�k�k��,7.5,��
2021/07/26,09:10,0.638,0.952,0.604,1.164,0.838,0.375,0.655,0.606,�k,6.8,��
2021/07/26,09:20,0.639,0.953,0.603,1.161,0.836,0.375,0.654,0.607,�k,7.7,��
2021/07/26,09:30,0.638,0.950,0.605,1.163,0.837,0.376,0.655,0.606,�k,8.4,��
2021/07/26,09:40,0.637,0.953,0.604,1.163,0.838,0.375,0.655,0.607,�k,8.5,��
2021/07/26,09:50,0.638,0.952,0.604,1.161,0.839,0.376,0.654,0.606,�k�k��,7.9,��
2021/07/26,10:00,0.640,0.953,0.604,1.163,0.838,0.376,0.655,0.608,�k�k��,9.6,��
2021/07/26,10:10,0.638,0.954,0.602,1.162,0.839,0.375,0.653,0.607,�k,8.8,��
2021/07/26,10:20,0.637,0.951,0.604,1.163,0.840,0.375,0.654,0.607,�k�k��,8.3,��
2021/07/26,10:30,0.639,0.955,0.604,1.164,0.838,0.375,0.653,0.607,�k�k��,8.9,��
2021/07/26,10:40,0.639,0.951,0.605,1.165,0.839,0.375,0.652,0.608,�k,7.4,��
2021/07/26,10:50,0.639,0.951,0.604,1.163,0.839,0.375,0.653,0.608,�k�k��,9.3,��
2021/07/26,11:00,0.640,0.951,0.602,1.165,0.837,0.375,0.655,0.608,�k�k��,9.2,��
2021/07/26,11:10,0.639,0.957,0.604,1.163,0.837,0.374,0.655,0.608,�k,8.8,��
2021/07/26,11:20,0.637,0.953,0.604,1.162,0.839,0.375,0.652,0.607,�k�k��,7.0,��
2021/07/26,11:30,0.639,0.953,0.605,1.164,0.837,0.376,0.653,0.607,�k�k��,9.0,��
2021/07/26,11:40,0.638,0.953,0.603,1.163,0.839,0.376,0.653,0.606,�k�k��,8.4,��
2021/07/26,11:50,0.640,0.955,0.602,1.162,0.838,0.373,0.653,0.608,�k�k��,8.3,��
2021/07/26,12:00,0.642,0.953,0.604,1.165,0.839,0.376,0.652,0.606,�k�k��,7.1,��
2021/07/26,12:10,0.639,0.955,0.603,1.162,0.838,0.375,0.650,0.606,�k,7.8,��
2021/07/26,12:20,0.639,0.955,0.603,1.160,0.836,0.376,0.654,0.606,�k,6.7,��
2021/07/26,12:30,0.637,0.952,0.604,1.163,0.838,0.374,0.654,0.608,�k,8.3,��
2021/07/26,12:40,0.640,0.952,0.605,1.162,0.840,0.375,0.654,0.607,�k�k��,8.7,��
2021/07/26,12:50,0.638,0.954,0.604,1.163,0.838,0.377,0.653,0.606,�k�k��,8.6,��
2021/07/26,13:00,0.638,0.953,0.605,1.162,0.838,0.374,0.652,0.607,�k,8.3,��
2021/07/26,13:10,0.639,0.954,0.606,1.162,0.840,0.375,0.654,0.607,�k�k��,8.8,��
2021/07/26,13:20,0.638,0.953,0.608,1.161,0.841,0.374,0.655,0.606,�k,8.3,��
2021/07/26,13:30,0.638,0.954,0.606,1.165,0.840,0.377,0.657,0.608,�k,9.6,��
2021/07/26,13:40,0.639,0.954,0.605,1.165,0.841,0.376,0.655,0.607,�k,10.5,��
2021/07/26,13:50,0.640,0.952,0.606,1.165,0.840,0.375,0.656,0.607,�k,9.5,��
2021/07/26,14:00,0.639,0.952,0.606,1.166,0.840,0.376,0.656,0.605,�k�k��,10.6,��
2021/07/26,14:10,0.639,0.954,0.607,1.164,0.839,0.374,0.656,0.607,�k,10.2,��
2021/07/26,14:20,0.637,0.954,0.605,1.163,0.841,0.375,0.657,0.607,�k,10.5,��
2021/07/26,14:30,0.635,0.956,0.604,1.164,0.843,0.376,0.656,0.609,�k,10.3,��
2021/07/26,14:40,0.635,0.957,0.608,1.164,0.842,0.375,0.655,0.610,�k,10.6,��
2021/07/26,14:50,0.641,0.954,0.607,1.165,0.841,0.376,0.656,0.610,�k,10.2,��
2021/07/26,15:00,0.640,0.952,0.607,1.165,0.841,0.375,0.656,0.610,�k�k��,9.2,��
2021/07/26,15:10,0.642,0.956,0.607,1.168,0.842,0.375,0.657,0.610,�k,8.5,��
2021/07/26,15:20,0.641,0.956,0.607,1.164,0.842,0.376,0.656,0.611,�k,10.9,��
2021/07/26,15:30,0.642,0.955,0.608,1.165,0.842,0.375,0.655,0.608,�k,11.3,��
2021/07/26,15:40,0.642,0.956,0.608,1.164,0.841,0.375,0.655,0.609,�k�k��,10.5,��
2021/07/26,15:50,0.642,0.957,0.608,1.165,0.841,0.377,0.658,0.608,�k,10.6,��
2021/07/26,16:00,0.642,0.958,0.607,1.163,0.843,0.375,0.656,0.608,�k,8.4,��
2021/07/26,16:10,0.642,0.958,0.606,1.165,0.843,0.376,0.656,0.609,�k,7.9,��
2021/07/26,16:20,0.642,0.958,0.603,1.162,0.842,0.376,0.658,0.609,�k,8.4,��
2021/07/26,16:30,0.642,0.957,0.606,1.165,0.842,0.375,0.656,0.611,�k,9.0,��
2021/07/26,16:40,0.642,0.956,0.606,1.166,0.842,0.377,0.655,0.609,�k,9.1,��
2021/07/26,16:50,0.641,0.956,0.607,1.166,0.841,0.377,0.655,0.607,�k,9.5,��
2021/07/26,17:00,0.641,0.957,0.608,1.165,0.842,0.375,0.658,0.609,�k,9.5,��
2021/07/26,17:10,0.640,0.957,0.607,1.166,0.841,0.374,0.657,0.611,�k,10.2,��
2021/07/26,17:20,0.641,0.956,0.607,1.167,0.842,0.376,0.655,0.610,�k�k��,9.9,��
2021/07/26,17:30,0.639,0.955,0.607,1.165,0.841,0.374,0.655,0.611,�k,9.8,��
2021/07/26,17:40,0.638,0.957,0.607,1.167,0.841,0.376,0.657,0.609,�k,8.3,��
2021/07/26,17:50,0.640,0.956,0.604,1.163,0.843,0.376,0.656,0.612,�k,9.8,��
2021/07/26,18:00,0.640,0.955,0.608,1.167,0.843,0.375,0.656,0.609,�k,10.7,��
2021/07/26,18:10,0.639,0.956,0.606,1.166,0.840,0.375,0.656,0.610,�k,11.3,��
2021/07/26,18:20,0.639,0.956,0.605,1.167,0.842,0.376,0.657,0.611,�k,11.8,��
2021/07/26,18:30,0.639,0.955,0.606,1.165,0.842,0.375,0.656,0.611,�k,10.3,��
2021/07/26,18:40,0.638,0.957,0.607,1.166,0.841,0.376,0.657,0.610,�k,9.4,��
2021/07/26,18:50,0.639,0.957,0.605,1.165,0.839,0.374,0.655,0.610,�k,10.5,��
2021/07/26,19:00,0.638,0.954,0.605,1.166,0.841,0.377,0.657,0.608,�k,9.3,��
2021/07/26,19:10,0.636,0.956,0.607,1.167,0.841,0.375,0.656,0.610,�k,8.7,��
2021/07/26,19:20,0.640,0.954,0.606,1.165,0.843,0.375,0.654,0.610,�k,10.2,�L
2021/07/26,19:30,0.643,0.955,0.607,1.165,0.842,0.376,0.656,0.611,�k,8.0,�L
2021/07/26,19:40,0.634,0.952,0.606,1.166,0.841,0.375,0.654,0.610,�k,8.2,�L
2021/07/26,19:50,0.635,0.950,0.604,1.163,0.837,0.375,0.653,0.608,�k,7.8,�L
2021/07/26,20:00,0.634,0.945,0.600,1.161,0.828,0.373,0.651,0.609,�k�k��,10.9,�L
2021/07/26,20:10,0.626,0.935,0.593,1.151,0.821,0.372,0.648,0.603,�k,13.0,�L
2021/07/26,20:20,0.624,0.925,0.591,1.139,0.812,0.369,0.643,0.600,�k,10.9,�L
2021/07/26,20:30,0.618,0.917,0.586,1.128,0.803,0.368,0.642,0.597,�k,12.1,�L
2021/07/26,20:40,0.616,0.913,0.585,1.117,0.799,0.366,0.640,0.596,�k,11.9,�L
2021/07/26,20:50,0.614,0.913,0.584,1.118,0.798,0.365,0.641,0.595,�k�k��,11.0,�L
2021/07/26,21:00,0.613,0.909,0.583,1.111,0.794,0.365,0.639,0.594,�k�k��,10.7,�L
2021/07/26,21:10,0.612,0.907,0.582,1.109,0.792,0.364,0.638,0.595,�k�k��,9.4,�L
2021/07/26,21:20,0.611,0.909,0.583,1.110,0.791,0.364,0.641,0.595,�k�k��,10.9,�L
2021/07/26,21:30,0.609,0.900,0.579,1.104,0.786,0.364,0.637,0.593,�k�k��,7.5,�L
2021/07/26,21:40,0.603,0.894,0.575,1.095,0.780,0.361,0.633,0.591,�k�k��,8.1,�L
2021/07/26,21:50,0.599,0.886,0.572,1.091,0.777,0.359,0.633,0.589,�k�k��,8.7,�L
2021/07/26,22:00,0.598,0.881,0.573,1.088,0.775,0.359,0.631,0.587,�k�k��,9.4,�L
2021/07/26,22:10,0.596,0.882,0.572,1.086,0.769,0.359,0.630,0.587,�k�k��,8.1,�L
2021/07/26,22:20,0.598,0.882,0.570,1.084,0.770,0.358,0.631,0.587,�k�k��,8.8,�L
2021/07/26,22:30,0.598,0.882,0.573,1.085,0.768,0.358,0.630,0.586,�k�k��,8.6,�L
2021/07/26,22:40,0.599,0.883,0.573,1.084,0.771,0.358,0.630,0.589,�k�k��,7.6,�L
2021/07/26,22:50,0.602,0.888,0.574,1.088,0.774,0.360,0.631,0.590,�k�k��,7.0,�L
2021/07/26,23:00,0.602,0.888,0.574,1.092,0.776,0.360,0.634,0.588,�k�k��,8.6,�L
2021/07/26,23:10,0.604,0.890,0.575,1.094,0.776,0.362,0.632,0.591,�k�k��,9.3,�L
2021/07/26,23:20,0.604,0.890,0.573,1.094,0.779,0.362,0.634,0.591,�k�k��,9.5,�L
2021/07/26,23:30,0.604,0.892,0.575,1.096,0.778,0.363,0.633,0.591,�k�k��,8.6,�L
2021/07/26,23:40,0.605,0.891,0.575,1.096,0.778,0.364,0.635,0.591,�k�k��,9.4,�L
2021/07/26,23:50,0.603,0.892,0.573,1.098,0.779,0.361,0.634,0.589,�k�k��,9.1,�L
